This is the latest recevied weather packets stored in our database for station/object N4ZIQ. If no packets are shown the sender has not sent any weather packets the latest 10 day(s).
| Time | Temp. | Humidity | Pressure | Rain* | Wind** | Luminosity | Snow |
|---|---|---|---|---|---|---|---|
| 1777982144 | 18.33° C | 95% | 1016.2 hPa | 0 mm | - | 60 W/m² | - |
| 1777981843 | 17.78° C | 95% | 1016.2 hPa | 0 mm | - | 111 W/m² | - |
| 1777981556 | 17.22° C | 95% | 1016.1 hPa | 0 mm | - | 67 W/m² | - |
| 1777981244 | 17.22° C | 95% | 1016 hPa | 0 mm | - | 42 W/m² | - |
| 1777980944 | 17.22° C | 96% | 1015.9 hPa | 0 mm | - | 72 W/m² | - |
| 1777980666 | 16.67° C | 96% | 1015.8 hPa | 0 mm | - | 81 W/m² | - |
| 1777980343 | 15.56° C | 95% | 1015.7 hPa | 0 mm | - | 74 W/m² | - |
| 1777980044 | 15° C | 95% | 1015.8 hPa | 0 mm | - | 67 W/m² | - |
| 1777979763 | 14.44° C | 95% | 1015.7 hPa | 0 mm | - | 53 W/m² | - |
| 1777979444 | 13.89° C | 95% | 1015.8 hPa | 0 mm | - | 37 W/m² | - |
| 1777979146 | 13.89° C | 95% | 1015.8 hPa | 0 mm | - | 28 W/m² | - |
| 1777978872 | 13.33° C | 95% | 1015.6 hPa | 0 mm | - | 23 W/m² | - |
| 1777978545 | 13.33° C | 95% | 1015.6 hPa | 0 mm | - | 18 W/m² | - |
| 1777978243 | 12.78° C | 95% | 1015.5 hPa | 0 mm | - | 12 W/m² | - |
| 1777977958 | 12.78° C | 95% | 1015.4 hPa | 0 mm | - | 9 W/m² | - |
| 1777977644 | 12.78° C | 95% | 1015.3 hPa | 0 mm | - | 0 W/m² | - |
| 1777977343 | 13.33° C | 95% | 1015.4 hPa | 0 mm | - | 0 W/m² | - |
| 1777977054 | 13.33° C | 95% | 1015.3 hPa | 0 mm | - | 0 W/m² | - |
| 1777976743 | 12.78° C | 95% | 1015.4 hPa | 0 mm | - | 0 W/m² | - |
| 1777976445 | 12.78° C | 95% | 1015.3 hPa | 0 mm | - | 0 W/m² | - |
| 1777976152 | 13.33° C | 95% | 1015.5 hPa | 0 mm | - | 0 W/m² | - |
| 1777975845 | 13.33° C | 95% | 1015.3 hPa | 0 mm | - | 0 W/m² | - |
| 1777975544 | 13.33° C | 94% | 1015.3 hPa | 0 mm | - | 0 W/m² | - |
| 1777975253 | 13.33° C | 94% | 1015.2 hPa | 0 mm | - | 0 W/m² | - |
| 1777974946 | 13.33° C | 94% | 1015.2 hPa | 0 mm | - | 0 W/m² | - |
* Rain latest hour (hover to see other rain measurements)
** Current wind speed in m/s (hover to see current wind gust speed)